Regional Weather Roundup
Issued by NWS Northern Indiana

Home | Current Version | Previous Version | Graphics & Text | Print | Product List | Glossary On
Versions: 1 2 3 4 5 6 7 8 9 10 11 12 13 14 15 16 17 18 19 20 21 22 23 24 25 26 27 28 29 30 31 32 33 34 35 36 37 38 39 40 41 42 43 44 45 46 47 48 49 50
000
ASUS43 KIWX 180010
RWRIWX

KIWX WEATHER ROUNDUP
NATIONAL WEATHER SERVICE NORTHERN INDIANA
800 PM EDT WED SEP 17 2014

NOTE: "FAIR" INDICATES FEW OR NO CLOUDS BELOW 12,000 FEET WITH NO
SIGNIFICANT WEATHER AND/OR OBSTRUCTIONS TO VISIBILITY.

* THESE STATIONS ARE NOT UNDER NWS QUALITY CONTROL. THEY ALSO MAY NOT
  REPORT WEATHER SUCH AS PRECIPITATION OR FOG.

INZ001>027-180100-
NORTHERN INDIANA

CITY           SKY/WX    TMP DP  RH WIND       PRES   REMARKS
GARY*          CLEAR     63  48  59 E7        29.99R
VALPARAISO     CLEAR     60  49  66 NE3       29.99R
6HR MIN TEMP:  60; 6HR MAX TEMP:  69;

MICHIGAN CITY* CLEAR     57  46  67 CALM      30.00S
LAPORTE*       CLEAR     58  47  65 CALM      30.00R
6HR MIN TEMP:  58; 6HR MAX TEMP:  67;

KNOX*          CLEAR     60  49  66 NE5       29.98R
6HR MIN TEMP:  41; 6HR MAX TEMP:  89;

SOUTH BEND     CLEAR     59  45  59 N6        30.01R
6HR MIN TEMP:  58; 6HR MAX TEMP:  69;

ELKHART*       CLEAR     61  43  51 NW3       30.00S
GOSHEN         CLEAR     61  45  55 N8        29.99R
6HR MIN TEMP:  61; 6HR MAX TEMP:  69;

MONTICELLO*    PTCLDY    62  52  71 CALM      29.97R
6HR MIN TEMP:  62; 6HR MAX TEMP:  69;

LOGANSPORT*    CLEAR     61  48  63 CALM      29.98R
ROCHESTER*     CLEAR     63  50  63 CALM      29.98S
WARSAW*        CLEAR     59  48  67 CALM      29.99R HAZE
ANGOLA*        CLEAR     57  50  77 CALM      29.99S
FORT WAYNE     PTCLDY    60  49  66 CALM      29.99S
6HR MIN TEMP:  58; 6HR MAX TEMP:  68;

HUNTINGTON*    CLEAR     57  53  85 CALM      29.98S
6HR MIN TEMP:  57; 6HR MAX TEMP:  67;

PERU/GRISSOM   CLEAR     63  54  72 CALM      29.97S
6HR MIN TEMP:  63; 6HR MAX TEMP:  70;

MARION*        CLEAR     59  49  69 CALM      29.98S HAZE
6HR MIN TEMP:  40; 6HR MAX TEMP:  90;


$$
INZ028>050-180100-
CENTRAL INDIANA

CITY           SKY/WX    TMP DP  RH WIND       PRES   REMARKS
LAFAYETTE      CLEAR     59  53  80 N3        29.96F
6HR MIN TEMP:  59; 6HR MAX TEMP:  68;

KOKOMO*        CLEAR     59  52  77 NE3       29.97S
6HR MIN TEMP:  59; 6HR MAX TEMP:  72;

MUNCIE*        PTCLDY    61  48  62 CALM      29.98S
6HR MIN TEMP:  60; 6HR MAX TEMP:  67;

INDIANAPOLIS   PTCLDY    62  49  62 CALM      29.96F
6HR MIN TEMP:  60; 6HR MAX TEMP:  67;


$$
MIZ043>046-050>051-056>058-064>065-071>073-077>080-180100-
SOUTHWEST LOWER MICHIGAN

CITY           SKY/WX    TMP DP  RH WIND       PRES   REMARKS
BATTLE CREEK   CLEAR     58  47  66 NW6       30.00R
6HR MIN TEMP:  58; 6HR MAX TEMP:  67;

BENTON HARBOR  CLEAR     54  48  80 CALM      29.99F
6HR MIN TEMP:  54; 6HR MAX TEMP:  65;

COLDWATER*     PTCLDY    60  48  64 CALM      29.99R
6HR MIN TEMP:  60; 6HR MAX TEMP:  69;

HILLSDALE*     CLEAR     53  49  86 CALM      29.99S
6HR MIN TEMP:  53; 6HR MAX TEMP:  68;

HOLLAND        CLEAR     57  48  72 CALM      30.00S
6HR MIN TEMP:  57; 6HR MAX TEMP:  67;

GRAND RAPIDS   CLEAR     60  44  55 W5        30.00R
6HR MIN TEMP:  59; 6HR MAX TEMP:  67;

KALAMAZOO      CLEAR     58  46  64 W5        30.00S
6HR MIN TEMP:  58; 6HR MAX TEMP:  68;

STURGIS*       CLEAR     57  48  72 NW3       29.99R
THREE RIVERS*  FAIR      60  48  64 CALM      30.00S

$$
OHZ001>008-015>018-024>025-180100-
NORTHWEST OHIO

CITY           SKY/WX    TMP DP  RH WIND       PRES   REMARKS
DEFIANCE       CLEAR     59  50  72 CALM      29.98S
6HR MIN TEMP:  59; 6HR MAX TEMP:  69;

FINDLAY        CLEAR     60  47  61 CALM      29.98S
6HR MIN TEMP:  60; 6HR MAX TEMP:  70;

TOLEDO EXPRESS MOCLDY    57  50  77 S5        29.98S
6HR MIN TEMP:  57; 6HR MAX TEMP:  69;

TOLEDO METCALF MOCLDY    64  45  49 SW5       29.98S
6HR MIN TEMP:  64; 6HR MAX TEMP:  69;

LIMA           MOCLDY    60  52  74 CALM      29.99S
6HR MIN TEMP:  60; 6HR MAX TEMP:  68;


$$
&&



USA.gov is the U.S. government's official web portal to all federal, state and local government web resources and services.